Wind_Speed
9 10 8 9 12 12 13 12 12 14 14 16 16 17 18 19 18 20 21 22 22 22 21 21 21 21 20 19 19 20 19 19 18 18 17 17 18 18 18 17 18 18 18 18
9 9 10 13 14 13 12 13 14 15 15 17 18 18 17 19 19 20 21 21 22 22 21 21 21 20 19 18 18 18 18 18 17 17 16 17 18 18 17 17 18 17 18 18
10 11 13 15 13 13 14 15 16 17 14 16 18 17 18 18 20 20 20 21 21 21 21 20 19 18 17 17 16 16 17 16 16 16 16 17 17 17 16 17 18 17 17 18
12 12 14 15 15 15 16 15 16 16 15 16 17 18 18 18 20 21 20 20 20 20 19 18 15 15 16 16 16 16 15 15 15 16 16 16 16 16 16 17 17 17 17 18
12 13 15 16 15 16 16 15 15 16 16 17 17 19 19 18 21 21 19 19 20 19 19 18 17 16 16 16 15 15 15 15 16 16 16 16 16 16 16 17 17 17 18 18
12 13 15 16 17 16 15 14 14 14 15 18 16 18 19 18 20 21 20 20 21 20 18 17 17 16 16 16 15 15 15 16 16 16 16 16 16 15 16 17 16 16 17 17
12 14 15 16 17 16 15 14 15 16 16 16 15 18 19 19 21 21 21 20 20 19 18 17 17 17 15 15 15 15 15 15 15 16 16 16 16 16 16 17 17 17 17 17
15 16 16 17 18 17 16 15 16 18 16 17 17 19 20 20 21 22 20 19 19 17 17 17 16 15 15 15 15 15 15 16 16 16 16 16 17 17 17 17 17 17 16 17
16 17 15 16 17 17 17 16 17 18 18 18 17 18 21 19 21 22 21 20 19 17 16 16 15 14 14 15 14 14 15 15 16 16 17 17 16 17 17 17 17 17 17 18
17 18 16 15 17 17 16 15 16 17 17 17 17 17 20 21 20 22 20 20 18 17 15 16 16 14 14 15 15 15 15 16 16 17 16 15 16 17 17 18 17 17 18 19
19 19 17 15 16 16 16 16 17 17 18 18 18 18 21 22 23 21 20 20 20 19 17 17 17 16 15 15 16 16 16 16 16 16 16 15 15 16 17 17 17 18 18 20
20 20 19 17 16 16 17 17 18 19 19 19 20 20 21 23 23 22 21 20 18 18 18 17 18 17 16 15 15 16 15 16 16 15 15 15 15 16 16 17 18 19 20 21
21 21 20 18 17 17 18 18 18 20 21 20 21 21 22 24 24 22 21 21 19 18 17 17 17 17 17 16 16 16 16 16 16 15 15 15 16 17 17 18 18 19 20 21
22 22 21 20 18 19 19 19 18 19 21 21 21 21 21 22 22 22 21 21 20 19 18 18 18 17 17 16 16 17 17 17 16 16 16 17 18 18 18 18 19 19 19 19
23 22 21 20 19 19 21 20 19 20 21 22 22 21 21 22 22 22 22 22 21 20 19 19 19 18 17 17 17 17 16 16 17 17 17 18 19 18 18 18 18 18 18 18
24 23 22 21 20 20 21 21 21 21 21 22 22 22 24 23 23 23 23 23 22 21 20 19 19 19 18 18 19 18 17 17 18 19 19 19 19 19 18 18 18 19 18 18
24 23 22 23 21 21 22 22 22 21 20 22 22 23 23 24 24 25 24 23 23 23 22 21 20 19 19 20 20 19 19 19 19 19 19 19 19 20 20 20 19 19 19 19
24 23 23 23 22 23 22 22 22 22 23 23 24 24 25 25 24 24 23 22 22 22 23 22 22 21 21 21 21 21 21 21 20 20 20 20 19 19 20 20 20 20 19 19
23 23 23 23 23 23 22 22 22 22 23 24 25 25 25 24 25 25 25 24 24 24 24 24 23 22 22 22 21 21 21 21 21 21 21 20 20 20 20 20 21 21 20 19
23 23 23 23 24 25 24 24 24 24 25 25 26 25 26 25 26 25 26 26 25 25 25 25 24 23 23 23 22 22 21 22 22 21 21 21 20 20 21 21 21 21 21 21
23 23 23 23 25 26 25 24 24 25 26 26 25 25 26 26 26 25 25 25 25 25 25 25 24 24 23 23 23 23 22 22 22 22 22 21 21 21 22 22 22 21 21 21
22 23 24 25 25 25 25 24 24 24 25 25 26 26 27 27 26 25 25 24 24 24 24 25 24 23 23 23 22 22 22 22 22 22 22 22 22 22 22 22 22 21 21 21
24 23 23 23 24 25 25 24 24 25 25 25 25 25 26 26 26 25 24 24 24 24 24 24 24 24 24 23 22 22 21 22 22 23 23 23 23 23 23 23 22 21 21 21
25 25 25 25 26 25 25 25 24 24 24 24 23 24 25 25 25 24 24 24 24 24 24 23 23 23 23 23 22 22 22 22 22 23 23 23 23 23 22 21 21 20 20 20
25 25 25 25 24 25 26 25 24 24 23 23 24 25 25 25 25 25 24 24 24 24 23 23 23 23 23 23 22 22 22 23 23 23 23 23 22 22 21 20 20 20 20 20
24 25 24 24 24 25 25 24 25 24 23 22 22 23 24 25 24 24 24 24 24 24 23 23 23 22 23 22 22 22 22 23 23 23 22 22 21 21 20 20 20 19 19 19
Wind_Direction
262 261 267 268 264 260 262 266 273 278 281 281 281 284 287 292 296 299 300 299 298 294 291 287 286 285 283 279 278 277 276 275 273 274 273 268 263 263 264 266 265 265 267 268
263 269 271 265 260 257 260 264 266 265 268 275 281 286 288 292 301 302 302 303 302 298 295 290 287 281 279 280 279 278 275 275 273 274 275 270 264 262 261 264 266 264 268 270
259 255 254 257 259 263 264 267 269 271 272 276 278 285 288 294 301 303 304 305 305 303 300 296 287 279 278 280 282 280 276 274 276 276 275 271 261 260 264 264 267 266 269 272
252 252 255 258 262 265 267 265 272 274 274 276 284 288 291 295 298 301 303 305 305 302 300 299 293 283 280 280 281 279 275 273 273 274 272 270 263 263 265 266 267 267 269 273
255 255 257 260 261 262 266 268 271 270 269 269 275 279 287 292 296 300 303 304 306 304 302 299 295 289 284 281 280 275 273 274 273 275 275 272 267 266 265 266 267 266 268 272
263 260 262 264 259 261 268 270 268 271 276 275 274 279 284 292 297 301 305 305 305 304 301 296 293 289 285 281 280 276 274 276 278 276 276 273 267 267 267 266 267 269 272 276
270 266 265 261 260 257 257 267 274 275 273 277 280 279 284 290 294 298 299 300 302 302 299 296 292 287 283 280 279 277 279 282 282 279 276 272 268 270 267 265 266 269 275 279
261 263 263 263 262 263 262 264 269 277 280 282 282 280 285 289 292 295 297 298 298 300 299 298 294 286 280 278 277 277 282 283 283 282 280 277 275 275 271 270 270 272 276 279
262 263 263 263 266 264 265 262 262 267 270 276 279 283 286 287 290 293 295 296 297 297 298 297 294 288 282 281 281 280 281 280 282 283 282 280 277 276 273 271 271 274 278 281
263 263 261 259 262 262 262 262 261 263 267 270 275 278 281 283 286 295 298 296 293 294 294 293 295 290 284 283 282 283 282 279 279 281 281 279 278 278 277 275 275 277 281 283
259 260 261 259 261 265 262 259 260 262 268 273 273 273 278 283 287 288 289 290 294 292 291 290 292 291 288 283 282 283 284 280 280 279 277 278 279 280 280 278 280 282 283 284
259 259 259 259 259 263 262 261 258 262 266 265 268 271 274 280 284 285 284 285 289 288 290 287 288 289 286 282 281 281 282 281 280 276 275 278 281 283 283 284 284 285 286 287
260 261 261 259 259 257 258 262 263 264 266 267 269 272 275 278 283 284 283 286 289 286 286 285 286 288 286 283 280 279 280 280 279 276 277 280 282 285 284 284 283 283 285 286
261 260 259 258 259 260 263 265 266 265 266 269 271 272 273 276 278 283 283 286 287 287 288 286 287 288 287 284 281 281 281 280 278 276 277 280 281 283 283 284 283 283 285 287
260 262 263 262 259 260 263 265 265 268 269 269 270 268 270 272 274 281 282 283 282 283 285 286 288 289 286 285 284 284 283 282 282 279 278 279 279 280 282 284 285 285 284 288
260 260 262 260 258 261 262 262 263 265 268 269 269 268 268 267 273 277 278 280 280 281 284 286 288 286 284 283 282 281 280 280 281 281 278 279 279 279 282 285 288 286 285 288
260 259 259 261 261 262 262 264 267 268 270 269 270 268 269 271 275 276 277 280 281 281 283 286 286 285 284 282 280 279 279 278 279 281 280 276 277 279 281 285 288 287 287 288
257 258 259 263 262 263 265 264 266 266 267 266 267 269 271 272 273 276 278 279 281 282 283 284 284 281 282 282 281 280 279 277 278 280 281 277 276 278 282 285 286 286 287 288
258 261 261 262 262 263 264 266 267 265 267 267 269 271 272 273 273 275 279 281 282 282 282 282 282 281 281 281 281 279 278 277 277 279 280 279 276 276 280 283 285 287 286 287
259 264 263 261 259 261 263 266 265 263 266 269 269 270 272 273 273 274 277 279 281 281 282 283 281 281 281 281 280 278 277 277 277 278 278 277 276 276 279 283 285 286 287 287
257 260 261 260 261 261 263 266 266 263 266 269 271 273 273 274 275 275 277 278 279 279 280 280 279 278 279 280 280 278 277 277 277 278 277 276 276 276 279 283 285 286 286 285
258 261 262 261 260 260 261 263 264 267 269 270 271 273 273 275 276 276 277 279 279 279 279 279 278 277 278 279 280 279 277 276 276 276 276 275 275 276 278 281 283 285 284 283
252 257 262 261 260 260 260 263 265 266 268 269 271 273 275 276 276 276 275 277 278 279 280 279 279 277 276 277 278 278 277 276 275 275 275 274 275 276 278 279 282 282 283 283
255 256 257 259 258 261 262 265 265 265 267 269 271 273 274 275 274 274 273 277 278 279 278 278 278 277 275 275 277 278 277 276 276 275 275 274 275 275 275 277 280 282 282 282
252 256 256 258 261 263 267 266 265 266 269 271 272 272 273 275 275 275 274 277 279 279 278 277 276 278 278 277 277 277 276 276 278 277 274 273 272 273 274 276 277 278 279 281
251 255 256 261 263 263 266 266 266 269 272 269 269 270 272 275 275 275 276 277 279 278 277 276 277 278 279 279 277 277 276 278 279 278 275 272 272 273 275 277 276 279 280 280
Height
5843 5845 5846 5848 5849 5850 5850 5851 5852 5852 5851 5849 5848 5847 5846 5844 5843 5841 5839 5836 5834 5831 5829 5828 5828 5827 5827 5826 5826 5826 5826 5826 5826 5826 5826 5827 5828 5828 5829 5830 5831 5832 5833 5833
5842 5843 5845 5846 5847 5847 5847 5848 5849 5849 5848 5846 5845 5844 5842 5841 5840 5838 5835 5832 5829 5826 5825 5823 5822 5822 5822 5822 5822 5822 5822 5822 5822 5822 5823 5823 5823 5824 5826 5827 5827 5828 5828 5829
5840 5843 5843 5843 5844 5844 5845 5845 5845 5844 5843 5842 5842 5841 5839 5838 5837 5835 5832 5829 5826 5823 5821 5819 5817 5817 5818 5819 5818 5818 5818 5818 5819 5819 5819 5820 5819 5820 5821 5823 5824 5824 5825 5825
5838 5840 5840 5840 5841 5842 5841 5842 5841 5841 5840 5839 5839 5837 5836 5835 5833 5831 5829 5826 5824 5821 5818 5816 5814 5814 5815 5815 5815 5815 5815 5815 5816 5816 5816 5816 5817 5817 5818 5820 5820 5821 5821 5822
5835 5836 5837 5837 5838 5838 5838 5838 5838 5837 5836 5836 5836 5834 5834 5832 5829 5828 5826 5823 5820 5817 5815 5814 5812 5812 5812 5812 5812 5811 5812 5812 5812 5813 5813 5813 5814 5814 5815 5816 5817 5817 5818 5818
5832 5833 5833 5834 5834 5834 5834 5834 5833 5833 5832 5832 5833 5832 5830 5829 5826 5824 5822 5820 5818 5815 5813 5811 5810 5809 5809 5809 5808 5809 5809 5809 5810 5810 5810 5810 5810 5811 5812 5812 5813 5814 5814 5814
5828 5830 5830 5830 5829 5829 5830 5831 5830 5830 5829 5829 5829 5828 5827 5825 5824 5822 5819 5817 5815 5812 5810 5808 5807 5806 5806 5806 5805 5805 5806 5807 5807 5807 5806 5807 5807 5807 5807 5808 5809 5810 5810 5810
5825 5826 5826 5826 5825 5826 5826 5827 5828 5827 5826 5826 5825 5823 5823 5820 5819 5817 5816 5814 5811 5809 5807 5805 5804 5803 5802 5803 5803 5803 5803 5803 5804 5804 5803 5803 5804 5803 5804 5804 5805 5806 5806 5806
5820 5822 5822 5822 5821 5822 5822 5823 5824 5823 5822 5822 5821 5820 5818 5817 5815 5813 5811 5810 5808 5806 5804 5802 5801 5800 5800 5799 5800 5800 5800 5800 5800 5800 5800 5800 5800 5800 5800 5800 5801 5801 5801 5801
5816 5816 5817 5817 5817 5817 5818 5819 5819 5818 5817 5817 5817 5817 5815 5812 5810 5809 5807 5805 5804 5803 5801 5799 5798 5797 5797 5796 5796 5797 5797 5797 5797 5797 5797 5796 5797 5797 5796 5796 5797 5797 5797 5796
5811 5811 5812 5813 5813 5813 5814 5814 5813 5813 5813 5813 5812 5814 5810 5807 5806 5805 5803 5802 5800 5800 5798 5797 5796 5795 5794 5794 5794 5793 5793 5793 5793 5793 5793 5793 5793 5792 5792 5792 5792 5792 5792 5791
5805 5806 5806 5808 5809 5809 5809 5809 5809 5809 5809 5808 5807 5810 5805 5803 5802 5800 5798 5798 5797 5796 5795 5793 5792 5792 5791 5791 5791 5790 5790 5789 5789 5789 5789 5789 5789 5788 5788 5788 5788 5787 5787 5786
5800 5800 5801 5802 5805 5805 5803 5803 5804 5804 5803 5802 5802 5804 5799 5798 5796 5795 5794 5793 5793 5792 5790 5789 5789 5789 5788 5787 5787 5786 5786 5785 5785 5785 5785 5785 5785 5784 5784 5783 5783 5783 5782 5781
5794 5795 5796 5797 5798 5798 5797 5798 5799 5799 5798 5797 5797 5797 5794 5792 5791 5790 5789 5788 5788 5787 5786 5785 5785 5785 5784 5783 5783 5782 5781 5781 5780 5780 5781 5780 5780 5780 5779 5779 5778 5777 5777 5775
5788 5789 5789 5790 5791 5792 5792 5793 5793 5793 5792 5792 5791 5790 5789 5786 5785 5785 5784 5783 5783 5782 5781 5781 5781 5780 5780 5779 5779 5778 5777 5776 5776 5775 5776 5776 5776 5775 5775 5774 5773 5772 5771 5770
5782 5783 5784 5785 5786 5786 5786 5787 5787 5787 5786 5786 5785 5784 5782 5781 5780 5780 5778 5778 5778 5778 5777 5777 5776 5775 5775 5775 5774 5773 5773 5772 5771 5770 5770 5770 5770 5770 5770 5769 5768 5767 5766 5765
5776 5777 5778 5779 5780 5780 5781 5781 5781 5781 5781 5781 5779 5779 5776 5776 5776 5775 5774 5773 5773 5773 5773 5772 5772 5771 5770 5770 5769 5768 5768 5767 5766 5765 5765 5765 5765 5765 5765 5764 5763 5762 5761 5760
5770 5771 5772 5772 5774 5773 5777 5775 5775 5774 5774 5774 5772 5771 5771 5770 5770 5769 5769 5768 5768 5768 5767 5767 5766 5766 5765 5764 5764 5763 5762 5762 5761 5760 5760 5759 5760 5760 5760 5759 5758 5757 5756 5755
5763 5765 5765 5767 5767 5767 5769 5768 5767 5767 5767 5767 5766 5766 5766 5765 5765 5764 5763 5763 5763 5762 5762 5761 5761 5760 5760 5759 5758 5757 5756 5756 5756 5755 5755 5754 5754 5754 5754 5753 5753 5752 5751 5749
5758 5758 5759 5759 5760 5760 5762 5761 5761 5762 5761 5760 5760 5760 5760 5759 5759 5759 5758 5757 5756 5756 5756 5755 5754 5754 5753 5752 5752 5751 5751 5750 5750 5749 5749 5749 5749 5749 5748 5748 5747 5746 5745 5744
5751 5751 5751 5752 5752 5753 5754 5754 5754 5756 5755 5754 5753 5753 5753 5752 5753 5752 5751 5750 5750 5749 5749 5748 5747 5747 5747 5746 5745 5745 5745 5744 5744 5743 5743 5743 5743 5743 5743 5742 5741 5740 5739 5738
5745 5745 5745 5745 5746 5748 5746 5746 5747 5747 5747 5747 5747 5747 5746 5746 5745 5745 5745 5744 5743 5743 5742 5741 5741 5741 5740 5739 5739 5738 5738 5738 5737 5737 5737 5737 5736 5736 5737 5736 5735 5734 5733 5732
5738 5739 5738 5738 5740 5740 5739 5738 5739 5740 5740 5740 5740 5740 5740 5739 5739 5738 5738 5737 5737 5737 5736 5735 5735 5734 5734 5733 5732 5732 5732 5731 5731 5731 5731 5730 5730 5730 5730 5729 5729 5728 5727 5726
5730 5731 5732 5731 5732 5732 5731 5732 5732 5733 5733 5733 5733 5733 5732 5732 5732 5731 5731 5731 5731 5730 5730 5729 5729 5727 5727 5727 5726 5726 5725 5725 5724 5724 5724 5724 5723 5723 5723 5722 5722 5721 5720 5720
5722 5723 5724 5724 5724 5725 5725 5725 5726 5726 5727 5726 5727 5726 5726 5725 5725 5725 5725 5724 5724 5724 5724 5723 5722 5721 5721 5720 5720 5719 5718 5718 5717 5717 5717 5716 5716 5716 5716 5715 5715 5714 5714 5713
5716 5717 5718 5717 5717 5718 5718 5719 5719 5719 5720 5720 5720 5720 5719 5719 5719 5719 5718 5718 5717 5717 5717 5716 5716 5715 5714 5714 5713 5713 5712 5712 5711 5710 5710 5709 5709 5709 5709 5709 5709 5708 5708 5707